Location: ????????
(55.4717°N, 39.1821°E)
Time: 23:01:42
(UTC+00:00)

NOSS 3-4 (C) - Pass Details

Date: 14 April 2024
Orbit: 806 x 1406 km, 63.4° (Epoch: 20 May)

Event Time Altitude Azimuth Distance (km) Brightness Sun altitude
Exits shadow 00:16:59 24° 233° (SW) 1,693 4.2 -15.7°
Maximum altitude 00:20:33 86° 322° (NW) 901 3.3 -15.3°
Drops below altitude 10° 00:26:54 10° 52° (NE) 2,749 7.3 -14.7°
Sets 00:29:40 0° 53° (NE) 3,791 8.5 -14.4°
